Left ArrowRight Arrow

39.51506, -84.39828

Hourly Observations for June 15, 2024

Temp ( °F °C ) Dew Point ( °F °C ) Humidity (%) Winds ( mph kmh ) Pressure ( in mb ) Visibility ( mi km ) Precip ( " mm )
12:15 am 00:15 Clear 70 21.2 52 11 52 52 E 7 11 30.01 1016 10 16 0.00 0.00
12:35 am 00:35 Clear 70 21 51 10.5 51 51 ENE 6 9 30.02 1017 10 16 0.00 0.00
12:55 am 00:55 Clear 69 20.8 51 10.8 53 53 NE 5 7 30.02 1017 10 16 0.00 0.00
1:15 am 01:15 Clear 67 19.3 53 11.8 62 62 Calm 30.04 1017 10 16 0.00 0.00
1:35 am 01:35 Clear 66 19.1 53 11.4 61 61 NNE 6 9 30.04 1017 10 16 0.00 0.00
1:55 am 01:55 Clear 66 19 52 11.1 60 60 NNE 5 7 30.04 1017 10 16 0.00 0.00
2:15 am 02:15 Clear 66 19.1 52 11.1 60 60 NE 7 11 30.05 1017 10 16 0.00 0.00
2:35 am 02:35 Clear 66 18.8 52 11.1 61 61 NE 5 7 30.04 1017 10 16 0.00 0.00
2:55 am 02:55 Clear 64 18 53 11.4 65 65 N 5 7 30.05 1018 10 16 0.00 0.00
3:15 am 03:15 Clear 64 17.8 53 11.5 67 67 NE 7 11 30.06 1018 10 16 0.00 0.00
3:35 am 03:35 Clear 65 18.3 52 11.3 64 64 NE 6 9 30.06 1018 10 16 0.00 0.00
3:55 am 03:55 Clear 64 17.9 52 11.2 65 65 NE 5 7 30.07 1018 10 16 0.00 0.00
4:15 am 04:15 Clear 64 17.7 52 11.3 66 66 NE 3 6 30.07 1018 10 16 0.00 0.00
4:35 am 04:35 Clear 62 16.8 53 11.5 71 71 ENE 5 7 30.07 1018 10 16 0.00 0.00
4:55 am 04:55 Clear 63 17 52 11 68 68 Calm 30.08 1019 10 16 0.00 0.00
5:15 am 05:15 Clear 63 17 52 11 68 68 NE 3 6 30.08 1019 10 16 0.00 0.00
5:35 am 05:35 Clear 60 15.5 52 11.3 76 76 NNE 6 9 30.09 1019 10 16 0.00 0.00
5:55 am 05:55 Clear 59 14.9 52 10.9 77 77 NNE 5 7 30.10 1019 10 16 0.00 0.00
6:15 am 06:15 Sunny 59 15.2 51 10.3 73 73 Calm 30.12 1020 10 16 0.00 0.00
6:35 am 06:35 Sunny 60 15.3 51 10.8 75 75 NNE 3 6 30.13 1020 10 16 0.00 0.00
6:55 am 06:55 Sunny 59 14.9 51 10.6 75 75 NE 3 6 30.15 1021 10 16 0.00 0.00
7:15 am 07:15 Sunny 60 15.5 52 11.3 76 76 Calm 30.16 1021 10 16 0.00 0.00
7:35 am 07:35 Sunny 63 17 51 10.8 67 67 Calm 30.15 1021 10 16 0.00 0.00
7:55 am 07:55 Sunny 65 18.1 52 11 63 63 NE 5 7 30.15 1021 10 16 0.00 0.00
8:15 am 08:15 Sunny 66 18.8 48 9 53 53 E 7 11 30.16 1021 10 16 0.00 0.00
8:35 am 08:35 Sunny 67 19.6 48 8.9 50 50 E 8 13 30.16 1021 10 16 0.00 0.00
8:55 am 08:55 Sunny 69 20.3 47 8.3 46 46 E 8 13 30.15 1021 10 16 0.00 0.00
9:15 am 09:15 Sunny 70 21.2 47 8.3 43 43 ESE 12 19 30.15 1021 10 16 0.00 0.00
9:35 am 09:35 Sunny 71 21.7 44 6.5 37 37 E 14 22 30.15 1021 10 16 0.00 0.00
9:55 am 09:55 Sunny 72 22.2 44 6.7 37 37 E 10 17 30.16 1021 10 16 0.00 0.00
10:15 am 10:15 Sunny 74 23.2 45 7.1 35 35 E 12 19 30.16 1021 10 16 0.00 0.00
10:35 am 10:35 Sunny 75 23.8 45 7 34 34 E 8 13 30.16 1021 10 16 0.00 0.00
10:55 am 10:55 Sunny 76 24.2 44 6.5 32 32 E 10 17 30.15 1021 10 16 0.00 0.00
11:15 am 11:15 Sunny 77 24.9 42 5.6 29 29 ESE 12 19 30.15 1021 10 16 0.00 0.00
11:35 am 11:35 Sunny 77 25.2 43 5.9 29 29 ESE 10 17 30.14 1021 10 16 0.00 0.00
11:55 am 11:55 Sunny 79 26.1 44 6.4 28 28 ESE 8 13 30.14 1021 10 16 0.00 0.00
12:15 pm 12:15 Sunny 80 26.5 45 7 29 29 E 9 15 30.13 1020 10 16 0.00 0.00
12:35 pm 12:35 Sunny 79 26.3 42 5.5 26 26 ENE 8 13 30.13 1020 10 16 0.00 0.00
12:55 pm 12:55 Sunny 81 27.1 43 5.9 26 26 SE 10 17 30.13 1020 10 16 0.00 0.00
1:15 pm 13:15 Sunny 81 27.1 42 5.6 25 25 SE 10 17 30.12 1020 10 16 0.00 0.00
1:35 pm 13:35 Sunny 81 27.1 42 5.4 25 25 E 9 15 30.12 1020 10 16 0.00 0.00
1:55 pm 13:55 Sunny 82 27.5 43 6 25 25 ESE 7 11 30.11 1020 10 16 0.00 0.00
2:15 pm 14:15 Sunny 82 27.8 43 6.2 25 25 E 9 15 30.11 1020 10 16 0.00 0.00
2:35 pm 14:35 Sunny 82 27.9 45 7.2 27 27 ESE 8 13 30.10 1019 10 16 0.00 0.00
2:55 pm 14:55 Sunny 83 28.1 45 7 26 26 SE 7 11 30.09 1019 10 16 0.00 0.00
3:15 pm 15:15 Sunny 83 28.2 45 7.4 27 27 ENE 9 15 30.10 1019 10 16 0.00 0.00
3:35 pm 15:35 Sunny 82 28 45 7 27 27 E 6 9 30.10 1019 10 16 0.00 0.00
3:55 pm 15:55 Sunny 84 28.9 46 7.6 26 26 E 9 15 30.09 1019 10 16 0.00 0.00
4:15 pm 16:15 Sunny 83 28.5 44 6.9 26 26 NE 7 11 30.09 1019 10 16 0.00 0.00
4:35 pm 16:35 Sunny 83 28.6 47 8.3 28 28 E 9 15 30.08 1018 10 16 0.00 0.00
4:55 pm 16:55 Sunny 84 28.7 46 7.8 27 27 E 12 19 30.07 1018 10 16 0.00 0.00
5:15 pm 17:15 Sunny 84 29 46 7.5 26 26 E 10 17 30.06 1018 10 16 0.00 0.00
5:35 pm 17:35 Sunny 84 28.7 42 5.5 23 23 ESE 6 9 30.06 1018 10 16 0.00 0.00
5:55 pm 17:55 Sunny 83 28.4 44 6.6 25 25 ESE 9 15 30.07 1018 10 16 0.00 0.00
6:15 pm 18:15 Sunny 83 28.3 44 6.7 26 26 E 8 13 30.07 1018 10 16 0.00 0.00
6:35 pm 18:35 Sunny 83 28.3 44 6.6 25 25 E 7 11 30.07 1018 10 16 0.00 0.00
6:55 pm 18:55 Sunny 83 28.1 44 6.6 26 26 ESE 7 11 30.07 1018 10 16 0.00 0.00
7:15 pm 19:15 Sunny 81 27.4 44 6.4 26 26 SE 8 13 30.06 1018 10 16 0.00 0.00
7:35 pm 19:35 Sunny 81 27.3 46 7.7 29 29 SE 7 11 30.07 1018 10 16 0.00 0.00
7:55 pm 19:55 Sunny 81 27 44 6.9 28 28 SE 7 11 30.06 1018 10 16 0.00 0.00
8:15 pm 20:15 Sunny 79 26.3 45 7 29 29 SE 7 11 30.07 1018 10 16 0.00 0.00
8:35 pm 20:35 Sunny 76 24.5 48 8.7 37 37 ESE 7 11 30.06 1018 10 16 0.00 0.00
8:55 pm 20:55 Sunny 73 22.9 48 9 41 41 E 5 7 30.06 1018 10 16 0.00 0.00
9:15 pm 21:15 Clear 68 20 55 12.7 63 63 ESE 3 6 30.07 1018 10 16 0.00 0.00
9:35 pm 21:35 Clear 66 19 55 12.6 66 66 N 3 6 30.08 1019 10 16 0.00 0.00
9:55 pm 21:55 Clear 64 18 55 12.5 70 70 N 5 7 30.08 1019 10 16 0.00 0.00
10:15 pm 22:15 Clear 62 16.8 54 12.3 75 75 N 3 6 30.08 1019 10 16 0.00 0.00
10:35 pm 22:35 Clear 62 16.8 54 12 73 73 N 3 6 30.09 1019 10 16 0.00 0.00
10:55 pm 22:55 Clear 61 15.9 54 12 78 78 Calm 30.09 1019 10 16 0.00 0.00
11:15 pm 23:15 Clear 61 16.3 53 11.4 73 73 Calm 30.08 1019 10 16 0.00 0.00
11:35 pm 23:35 Clear 59 15.1 53 11.7 80 80 Calm 30.09 1019 10 16 0.00 0.00
11:55 pm 23:55 Clear 58 14.6 54 12 84 84 Calm 30.08 1019 10 16 0.00 0.00

Powered by Vaisala Xweather